G4RHR Felixstowe UK current weather conditions

sailwx.info

Wind from 046 at 6 knots gusting 13

Air temperature 17.2° C
Dewpoint 12.1° C

Last reported at 2019-Jun-27 10:06 UTC.
Time now 2019-Jun-27 10:39 UTC

Location: N 52°01' E 001°19'.
View on Google Maps.

See reports from other nearby stations

  
Tides and Currents Weather Stations Pressure Air Temp Water Temp Dewpoint Dewpoint Depression Visibility Wind Speed Wind Dir Waves Ship Positions
date/time (UTC)wind fromknots sea level pressurealtimeterstation pressurevisibilityair tempwater tempwave heightnotes
2019-Jun-27 10:06 046 6 gusting 13 17.2
2019-Jun-27 09:57 037 6 gusting 13 16.7
2019-Jun-27 09:48 060 5 gusting 12 17.8
2019-Jun-27 09:39 045 6 gusting 13 16.7
2019-Jun-27 09:30 038 5 gusting 11 16.7
2019-Jun-27 09:21 039 6 gusting 13 16.7
2019-Jun-27 09:12 045 6 gusting 12 16.1
2019-Jun-27 09:03 052 6 gusting 12 16.7
2019-Jun-27 08:54 056 6 gusting 13 16.7
2019-Jun-27 08:45 054 5 gusting 12 17.2
2019-Jun-27 08:36 043 5 gusting 10 16.1
2019-Jun-27 08:27 052 6 gusting 11 16.1
2019-Jun-27 08:18 061 6 gusting 14 16.1
2019-Jun-27 08:09 057 6 gusting 13 16.1
2019-Jun-27 08:00 049 6 gusting 12 15.6
2019-Jun-27 07:51 051 6 gusting 12 15.6
2019-Jun-27 07:42 042 6 gusting 12 15.6
2019-Jun-27 07:33 054 5 gusting 12 15.6
2019-Jun-27 07:24 056 6 gusting 12 14.4
2019-Jun-27 07:15 054 6 gusting 15 14.4
2019-Jun-27 07:06 060 6 gusting 13 14.4
2019-Jun-27 06:57 052 5 gusting 10 14.4
2019-Jun-27 06:48 050 6 gusting 12 13.9
2019-Jun-27 06:39 047 6 gusting 10 13.9
2019-Jun-27 06:30 038 5 gusting 13 13.9
2019-Jun-27 06:21 045 4 gusting 11 13.9
2019-Jun-27 06:12 049 4 gusting 10 13.3
2019-Jun-27 06:03 046 5 gusting 10 13.3
2019-Jun-27 05:54 046 5 gusting 11 13.3
2019-Jun-27 05:45 049 4 gusting 12 13.3
2019-Jun-27 05:36 046 3 gusting 8 13.3
2019-Jun-27 05:27 034 2 gusting 6 13.3
2019-Jun-27 05:18 034 3 gusting 9 12.8
2019-Jun-27 05:09 029 3 gusting 9 12.8
2019-Jun-27 05:00 026 2 gusting 7 12.8
2019-Jun-27 04:51 031 2 gusting 6 12.8
2019-Jun-27 03:57 025 2 gusting 7 12.8
2019-Jun-27 03:48 033 3 gusting 9 12.8
2019-Jun-27 03:39 041 3 gusting 7 12.8
2019-Jun-27 03:30 026 3 gusting 7 12.8
2019-Jun-27 03:21 029 2 gusting 9 12.8
2019-Jun-27 03:12 032 3 gusting 10 12.8
2019-Jun-27 03:03 036 3 gusting 6 12.8
2019-Jun-27 02:54 035 4 gusting 9 12.8
2019-Jun-27 02:45 036 3 gusting 10 12.8
2019-Jun-27 02:36 030 3 gusting 8 12.8
2019-Jun-27 02:27 040 3 gusting 7 12.8
2019-Jun-27 02:18 043 4 gusting 8 12.8
2019-Jun-27 02:09 034 5 gusting 11 12.8
2019-Jun-27 02:00 035 3 gusting 9 12.8
2019-Jun-27 01:51 037 4 gusting 9 12.8
2019-Jun-27 01:42 029 4 gusting 11 13.3
2019-Jun-27 01:33 027 3 gusting 10 13.3
2019-Jun-27 01:24 033 2 gusting 7 13.3
2019-Jun-27 01:15 033 2 gusting 6 13.3
2019-Jun-27 01:06 036 2 gusting 6 13.3
2019-Jun-27 00:57 036 2 gusting 6 13.3
2019-Jun-27 00:48 040 3 gusting 10 13.3
2019-Jun-27 00:39 033 4 gusting 10 13.3
2019-Jun-27 00:30 027 4 gusting 8 13.3
2019-Jun-27 00:21 027 4 gusting 7 13.3
2019-Jun-27 00:12 028 3 gusting 9 13.3
2019-Jun-27 00:03 044 3 gusting 7 13.3
2019-Jun-26 23:54 041 3 gusting 9 13.3
2019-Jun-26 23:45 044 4 gusting 9 13.3
2019-Jun-26 23:36 041 5 gusting 11 13.3
2019-Jun-26 23:27 033 6 gusting 12 13.3
2019-Jun-26 23:18 028 5 gusting 10 13.3
2019-Jun-26 23:09 024 4 gusting 9 13.3
2019-Jun-26 23:00 036 4 gusting 8 13.3
2019-Jun-26 12:03 017 4 gusting 11 17.8
2019-Jun-26 11:54 357 3 gusting 7 17.8
2019-Jun-26 11:45 011 4 gusting 8 17.8
2019-Jun-26 11:36 004 3 gusting 7 17.8
2019-Jun-26 11:27 007 3 gusting 6 17.8
2019-Jun-26 11:18 008 3 gusting 8 17.8
2019-Jun-26 11:09 014 3 gusting 8 18.3
2019-Jun-26 11:00 017 3 gusting 7 17.8
2019-Jun-26 10:51 010 3 gusting 7 17.8
2019-Jun-26 10:42 005 4 gusting 9 17.8
2019-Jun-26 10:33 350 4 gusting 8 17.2
2019-Jun-26 10:24 358 4 gusting 10 17.2
2019-Jun-26 10:15 012 5 gusting 10 17.2
2019-Jun-26 10:06 018 5 gusting 13 17.2
2019-Jun-26 09:57 026 6 gusting 10 17.2
2019-Jun-26 09:48 022 6 gusting 13 17.2
2019-Jun-26 09:39 018 6 gusting 13 16.7
2019-Jun-26 09:30 001 5 gusting 11 16.1
2019-Jun-26 09:21 359 4 gusting 9 15.6
2019-Jun-26 09:12 002 4 gusting 12 16.1
2019-Jun-26 09:03 009 5 gusting 12 15.6
2019-Jun-26 08:54 004 5 gusting 11 15.6
2019-Jun-26 08:45 008 5 gusting 10 15.6
2019-Jun-26 08:36 009 5 gusting 12 15.6
2019-Jun-26 08:27 012 4 gusting 12 15.6
2019-Jun-26 08:18 005 3 gusting 9 15.0
2019-Jun-26 08:09 014 3 gusting 8 15.0
2019-Jun-26 08:00 023 3 gusting 9 15.0
2019-Jun-26 05:09 357 3 gusting 9 14.4
2019-Jun-26 05:00 009 2 gusting 6 14.4
2019-Jun-26 04:51 003 2 gusting 9 14.4
2019-Jun-26 04:42 002 3 gusting 7 14.4
2019-Jun-26 04:33 006 4 gusting 11 14.4
2019-Jun-26 04:24 359 2 gusting 9 14.4
2019-Jun-26 04:15 001 3 gusting 8 14.4
2019-Jun-26 04:06 351 3 gusting 8 14.4
2019-Jun-26 03:57 354 3 gusting 8 14.4
2019-Jun-26 03:48 355 3 gusting 9 14.4
2019-Jun-26 03:39 356 3 gusting 9 14.4
2019-Jun-26 03:30 351 3 gusting 9 14.4
2019-Jun-26 03:21 349 2 gusting 7 14.4
2019-Jun-26 03:12 347 3 gusting 10 14.4
2019-Jun-26 03:03 342 3 gusting 7 14.4
2019-Jun-26 02:54 351 2 gusting 7 14.4
2019-Jun-26 02:45 351 3 gusting 6 14.4
2019-Jun-26 02:36 342 2 gusting 8 14.4
2019-Jun-26 02:27 330 2 gusting 7 14.4
2019-Jun-26 02:18 338 3 gusting 8 14.4
2019-Jun-26 02:09 339 1 gusting 6 14.4
2019-Jun-26 02:00 343 2 gusting 8 14.4
2019-Jun-26 01:51 345 3 gusting 8 14.4
2019-Jun-26 01:42 324 3 gusting 7 15.0
2019-Jun-26 01:33 335 4 gusting 10 15.0
2019-Jun-26 01:24 346 3 gusting 6 15.0
2019-Jun-26 01:15 337 3 gusting 8 15.0
2019-Jun-26 01:06 339 3 gusting 9 15.0
2019-Jun-26 00:57 348 3 gusting 9 15.0
2019-Jun-26 00:48 338 3 gusting 9 15.0
2019-Jun-26 00:39 328 2 gusting 7 15.6
2019-Jun-26 00:30 327 2 gusting 6 15.6
2019-Jun-26 00:21 333 3 gusting 9 15.6
2019-Jun-26 00:12 334 2 gusting 6 15.6
2019-Jun-26 00:03 333 2 gusting 9 15.6
2019-Jun-25 23:54 332 2 gusting 8 15.6
2019-Jun-25 23:45 339 2 gusting 8 15.6
2019-Jun-25 23:36 328 3 gusting 6 15.6
2019-Jun-25 23:27 332 3 gusting 7 16.1
2019-Jun-25 23:18 332 1 gusting 7 16.1
2019-Jun-25 23:09 325 2 gusting 7 16.1
2019-Jun-25 23:00 345 2 gusting 8 16.1
2019-Jun-25 22:51 335 2 gusting 7 16.1
2019-Jun-25 22:42 339 2 gusting 7 16.1
2019-Jun-25 22:33 346 2 gusting 7 16.1
2019-Jun-25 22:24 349 3 gusting 7 16.1
2019-Jun-25 22:15 350 2 gusting 8 16.1
2019-Jun-25 22:06 332 1 gusting 7 16.7
2019-Jun-25 21:57 322 1 gusting 6 16.7
2019-Jun-25 21:48 322 1 gusting 6 16.7
2019-Jun-25 21:39 324 2 gusting 6 16.7
2019-Jun-25 21:30 332 2 gusting 6 16.7
2019-Jun-25 21:21 330 1 gusting 6 16.7
2019-Jun-25 21:03 333 2 gusting 6 17.2
2019-Jun-25 20:54 323 1 gusting 5 17.2
2019-Jun-25 20:45 311 1 gusting 6 17.8
2019-Jun-25 20:36 314 1 gusting 5 17.8
2019-Jun-25 20:27 319 2 gusting 6 18.3
2019-Jun-25 20:18 321 0 gusting 4 18.3
2019-Jun-25 20:09 343 1 gusting 5 18.9
2019-Jun-25 20:00 342 1 gusting 5 18.9
2019-Jun-25 19:51 321 1 gusting 5 19.4
2019-Jun-25 19:42 335 1 gusting 4 19.4
2019-Jun-25 19:33 347 1 gusting 6 20.0
2019-Jun-25 19:24 339 2 gusting 6 20.6
2019-Jun-25 19:15 333 2 gusting 6 20.6
2019-Jun-25 19:06 330 3 gusting 10 21.1
2019-Jun-25 18:57 352 2 gusting 8 21.7
2019-Jun-25 18:48 354 3 gusting 8 22.2
2019-Jun-25 18:39 347 2 gusting 6 22.8
2019-Jun-25 18:30 345 2 gusting 5 22.8
2019-Jun-25 18:21 351 2 gusting 6 22.8
2019-Jun-25 18:12 358 3 gusting 7 22.8
2019-Jun-25 18:03 355 3 gusting 7 22.8
2019-Jun-25 17:54 341 2 gusting 6 23.3
2019-Jun-25 17:45 353 3 gusting 8 23.3
2019-Jun-25 17:36 351 2 gusting 6 23.3
2019-Jun-25 17:27 357 3 gusting 8 22.8
2019-Jun-25 17:18 351 2 gusting 6 23.3
2019-Jun-25 17:09 003 2 gusting 6 23.3
2019-Jun-25 17:00 004 3 gusting 10 22.8
2019-Jun-25 16:51 355 3 gusting 9 22.2
2019-Jun-25 16:42 343 3 gusting 10 22.2
2019-Jun-25 16:33 334 3 gusting 8 22.2
2019-Jun-25 16:24 348 2 gusting 6 22.8
2019-Jun-25 16:15 344 2 gusting 7 22.8
2019-Jun-25 16:06 357 2 gusting 6 22.8
2019-Jun-25 15:57 008 3 gusting 9 23.3
2019-Jun-25 15:48 009 3 gusting 7 23.3
2019-Jun-25 15:39 002 2 gusting 8 23.3
2019-Jun-25 15:30 001 3 gusting 8 23.3
2019-Jun-25 15:21 007 4 gusting 12 23.3
2019-Jun-25 15:12 011 5 gusting 11 23.3